This demonstration page uses our WeatherBlox Daily Observations layout. Learn more.

Left ArrowRight Arrow

Hourly Observations for May 20, 2020

Temp ( °F °C ) Dew Point ( °F °C ) Humidity (%) Winds ( mph kmh ) Pressure ( in mb ) Visibility ( mi km ) Precip ( " mm )
12:15 am 00:15 Clear 57 13.7 50 10 79 79 SSE 3 6 29.96 1015 10 16.0934 0 0
12:35 am 00:35 Clear 53 11.9 49 9.6 86 86 ESE 7 11 29.98 1015 10 16.0934 0 0
12:55 am 00:55 Clear 55 12.6 50 10 84 84 ESE 9 15 29.97 1015 10 16.0934 0 0
1:15 am 01:15 Clear 55 12.5 50 10 85 85 SSE 6 9 29.98 1015 10 16.0934 0 0
1:35 am 01:35 Clear 53 11.6 49 9.3 86 86 SE 6 9 29.99 1016 10 16.0934 0 0
1:55 am 01:55 Clear 52 11.2 49 9.5 89 89 SE 7 11 29.98 1015 10 16.0934 0 0
2:15 am 02:15 Clear 51 10.8 48 9.1 89 89 SE 8 13 29.99 1015 10 16.0934 0 0
2:35 am 02:35 Clear 50 10.2 48 8.8 91 91 ESE 8 13 29.98 1015 10 16.0934 0 0
2:55 am 02:55 Clear 50 10.1 48 8.8 92 92 E 9 15 29.98 1015 10 16.0934 0 0
3:15 am 03:15 Clear 50 10.2 48 9 92 92 ESE 9 15 29.98 1015 10 16.0934 0 0
3:35 am 03:35 Clear 50 10.2 48 9.1 93 93 ESE 9 15 29.97 1015 10 16.0934 0 0
3:55 am 03:55 Clear 51 10.3 49 9.3 94 94 ESE 9 15 29.97 1015 10 16.0934 0 0
4:15 am 04:15 Clear 51 10.5 49 9.5 94 94 ESE 12 19 29.96 1015 10 16.0934 0 0
4:35 am 04:35 Clear 51 10.5 49 9.5 94 94 SE 9 15 29.98 1015 10 16.0934 0 0
4:55 am 04:55 Clear 51 10.3 49 9.5 95 95 SE 9 15 29.96 1015 7 11.26538 0 0
5:15 am 05:15 Clear 50 10.2 49 9.5 95 95 ESE 12 19 29.94 1014 7 11.26538 0 0
5:35 am 05:35 Clear 50 10.2 49 9.5 95 95 SE 9 15 29.97 1015 7 11.26538 0 0
5:55 am 05:55 Clear 51 10.3 49 9.6 95 95 SE 10 17 29.97 1015 7 11.26538 0 0
6:15 am 06:15 Clear 50 10.2 49 9.5 95 95 SE 9 15 29.97 1015 7 11.26538 0 0
6:35 am 06:35 Sunny with Mist and Fog 50 10 49 9.3 95 95 SSE 6 9 29.98 1015 5 8.0467 0 0
6:55 am 06:55 Sunny with Mist and Fog 51 10.3 49 9.7 96 96 SE 8 13 29.98 1015 5 8.0467 0 0
7:15 am 07:15 Mostly Cloudy with Mist and Fog 51 10.5 50 10 97 97 SE 12 19 29.99 1016 3 4.82802 0 0
7:35 am 07:35 Cloudy with Fog 52 11 51 10.5 97 97 SE 13 20 29.97 1015 0.5 0.80467 0 0
7:55 am 07:55 Cloudy with Fog 53 11.4 52 10.9 97 97 SE 10 17 29.98 1015 0.5 0.80467 0 0
8:15 am 08:15 Cloudy with Mist and Fog 53 11.8 53 11.4 97 97 SE 13 20 29.98 1015 1.75 2.816345 0 0
8:35 am 08:35 Cloudy with Mist and Fog 54 12.3 54 12 98 98 ESE 12 19 29.97 1015 4 6.43736 0 0
8:55 am 08:55 Cloudy with Mist and Fog 55 12.7 54 12.1 96 96 ESE 10 17 29.97 1015 3 4.82802 0 0
9:15 am 09:15 Cloudy 56 13.1 54 12.2 94 94 ESE 13 20 29.97 1015 10 16.0934 0 0
9:35 am 09:35 Cloudy 57 13.8 54 12.3 91 91 ESE 13 20 29.95 1014 10 16.0934 0 0
9:55 am 09:55 Mostly Cloudy 59 15 55 12.5 85 85 ESE 14 22 29.94 1014 10 16.0934 0 0
10:15 am 10:15 Partly Cloudy 61 16.1 55 12.5 79 79 SE 16 26 29.93 1014 10 16.0934 0 0
10:35 am 10:35 Partly Cloudy 64 17.6 55 12.6 73 73 SE 15 24 29.92 1013 10 16.0934 0 0
10:55 am 10:55 Partly Cloudy 65 18.4 55 12.6 69 69 SSE 13 20 29.91 1013 10 16.0934 0 0
11:15 am 11:15 Partly Cloudy 67 19.4 54 12.3 64 64 SSE 14 22 29.9 1013 10 16.0934 0 0
11:35 am 11:35 Sunny 68 19.8 54 12 61 61 SE 18 30 29.9 1012 10 16.0934 0 0
11:55 am 11:55 Partly Cloudy 69 20.7 54 12.2 58 58 SSE 15 24 29.89 1012 10 16.0934 0 0
12:15 pm 12:15 Sunny 70 21.2 53 11.8 55 55 SSE 13 20 29.89 1012 10 16.0934 0 0
12:35 pm 12:35 Sunny 71 21.8 53 11.4 52 52 SE 20 31 29.87 1012 10 16.0934 0 0
12:55 pm 12:55 Sunny 72 22.4 51 10.8 48 48 SSE 13 20 29.86 1011 10 16.0934 0 0
1:15 pm 13:15 Sunny 72 22.3 52 10.9 49 49 SSE 15 24 29.85 1011 10 16.0934 0 0
1:35 pm 13:35 Sunny 74 23.2 52 11.1 47 47 SSE 18 30 29.84 1011 10 16.0934 0 0
1:55 pm 13:55 Sunny 74 23.4 51 10.6 45 45 S 20 31 29.83 1010 10 16.0934 0 0
2:15 pm 14:15 Sunny 74 23.4 51 10.4 44 44 SSE 17 28 29.82 1010 10 16.0934 0 0
2:35 pm 14:35 Sunny 75 24 51 10.8 44 44 SSE 16 26 29.81 1010 10 16.0934 0 0
2:55 pm 14:55 Sunny 75 24.1 51 10.8 43 43 SSE 16 26 29.8 1009 10 16.0934 0 0
3:15 pm 15:15 Sunny 76 24.2 51 10.3 42 42 S 16 26 29.79 1009 10 16.0934 0 0
3:35 pm 15:35 Sunny 76 24.5 51 10.7 42 42 SSE 21 33 29.78 1008 10 16.0934 0 0
3:55 pm 15:55 Sunny 76 24.5 50 9.9 40 40 SSE 15 24 29.78 1008 10 16.0934 0 0
4:15 pm 16:15 Sunny 76 24.7 51 10.5 41 41 SSE 18 30 29.77 1008 10 16.0934 0 0
4:35 pm 16:35 Sunny 76 24.6 51 10.4 41 41 SSE 21 33 29.75 1007 10 16.0934 0 0
4:55 pm 16:55 Sunny 77 25 50 10.2 39 39 SSE 17 28 29.75 1007 10 16.0934 0 0
5:15 pm 17:15 Sunny 77 25 51 10.8 41 41 SSE 20 31 29.74 1007 10 16.0934 0 0
5:35 pm 17:35 Sunny 77 25 51 10.5 40 40 S 18 30 29.74 1007 10 16.0934 0 0
5:55 pm 17:55 Sunny 76 24.7 52 11 42 42 SSE 17 28 29.74 1007 10 16.0934 0 0
6:15 pm 18:15 Sunny 76 24.5 52 11.3 44 44 SSE 17 28 29.74 1007 10 16.0934 0 0
6:35 pm 18:35 Sunny 76 24.2 53 11.5 45 45 SE 22 35 29.73 1007 10 16.0934 0 0
6:55 pm 18:55 Sunny 75 23.7 52 11.2 45 45 SSE 22 35 29.73 1007 10 16.0934 0 0
7:15 pm 19:15 Sunny 74 23.5 53 11.5 47 47 SE 21 33 29.73 1007 10 16.0934 0 0
7:35 pm 19:35 Sunny 73 23 53 11.4 48 48 SE 22 35 29.72 1007 10 16.0934 0 0
7:55 pm 19:55 Sunny 72 22.2 53 11.5 51 51 SE 20 31 29.73 1007 10 16.0934 0 0
8:15 pm 20:15 Sunny 71 21.6 54 12 55 55 SE 16 26 29.73 1007 10 16.0934 0 0
8:35 pm 20:35 Sunny 70 21 54 12.2 57 57 SE 20 31 29.75 1007 10 16.0934 0 0
8:55 pm 20:55 Clear 68 20.2 55 12.5 61 61 SE 20 31 29.76 1008 10 16.0934 0 0
9:15 pm 21:15 Clear 67 19.5 55 12.5 64 64 SE 17 28 29.77 1008 10 16.0934 0 0
9:35 pm 21:35 Clear 66 18.9 55 12.5 67 67 SE 17 28 29.79 1009 10 16.0934 0 0
9:55 pm 21:55 Clear 65 18.3 55 12.5 69 69 SE 15 24 29.8 1009 10 16.0934 0 0
10:15 pm 22:15 Clear 64 17.9 55 12.5 71 71 SE 16 26 29.8 1009 10 16.0934 0 0
10:35 pm 22:35 Clear 63 17.2 55 12.5 74 74 SE 15 24 29.82 1010 10 16.0934 0 0
10:55 pm 22:55 Clear 63 17 55 12.6 75 75 SE 17 28 29.81 1010 10 16.0934 0 0
11:15 pm 23:15 Clear 62 16.6 55 12.6 77 77 SE 20 31 29.82 1010 10 16.0934 0 0
11:35 pm 23:35 Clear 61 16.2 55 12.6 79 79 SE 20 31 29.82 1010 10 16.0934 0 0
11:55 pm 23:55 Clear 60 15.7 55 12.6 82 82 SE 17 28 29.83 1010 10 16.0934 0 0

Powered by AerisWeather